EW5676 Weather Reports


Display with metric or nautical units.
time (UTC)temp
F
wind
direction
speed
MPH
gust
MPH
rain 1hr
in
rain 24hr
in
rain mn
in
humidity
%
barometer
mb
20260504080239 47 226 1.0 4.0 0.00 0.00 0.00 63 1019.4
20260504050237 41 0 0.0 0.0 0.00 0.00 0.00 68 1018.7
20260504045337 41 0 0.0 0.0 0.00 0.00 0.00 67 1018.8
20260504044437 42 0 0.0 0.0 0.00 0.00 0.00 66 1018.8
20260504043537 42 0 0.0 0.0 0.00 0.00 0.00 64 1018.8
20260504042637 43 0 0.0 0.0 0.00 0.00 0.00 63 1018.7
20260504041737 43 0 0.0 0.0 0.00 0.00 0.00 62 1018.7
20260504040837 42 0 0.0 0.0 0.00 0.00 0.00 64 1018.7
20260504035937 42 0 0.0 0.0 0.00 0.00 0.00 64 1018.7
20260504035037 42 0 0.0 0.0 0.00 0.00 0.00 62 1018.7
20260504033237 43 0 0.0 0.0 0.00 0.00 0.00 61 1018.6
20260504032337 43 0 0.0 0.0 0.00 0.00 0.00 61 1018.6
20260504031437 43 0 0.0 0.0 0.00 0.00 0.00 63 1018.6
20260504030537 42 0 0.0 0.0 0.00 0.00 0.00 64 1018.5
20260504025637 42 0 0.0 0.0 0.00 0.00 0.00 67 1018.5
20260504023837 43 0 0.0 0.0 0.00 0.00 0.00 63 1018.4
20260504022936 43 0 0.0 0.0 0.00 0.00 0.00 64 1018.4
20260504022037 44 0 0.0 0.0 0.00 0.00 0.00 65 1018.4
20260504021136 44 0 0.0 0.0 0.00 0.00 0.00 61 1018.4
20260504020236 45 0 0.0 0.0 0.00 0.00 0.00 58 1018.4
20260504015336 45 0 0.0 0.0 0.00 0.00 0.00 58 1018.4
20260504014436 45 0 0.0 0.0 0.00 0.00 0.00 56 1018.4
20260504013536 47 0 0.0 0.0 0.00 0.00 0.00 56 1018.3
20260504012636 47 0 0.0 0.0 0.00 0.00 0.00 54 1018.1
20260504011736 48 0 0.0 0.0 0.00 0.00 0.00 52 1018.1
20260504010836 49 0 0.0 0.0 0.00 0.00 0.00 51 1018.0
20260504005936 50 0 0.0 0.0 0.00 0.00 0.00 47 1017.8
20260504005036 51 0 0.0 0.0 0.00 0.00 0.00 45 1017.7
20260504004136 52 0 0.0 0.0 0.00 0.00 0.00 43 1017.6
20260504003236 53 0 0.0 0.0 0.00 0.00 0.00 39 1017.5
20260504002336 53 251 0.0 2.0 0.00 0.00 0.00 39 1017.3
20260504001436 54 259 1.0 3.0 0.00 0.00 0.00 38 1017.1
20260504000536 54 252 1.0 3.0 0.00 0.00 0.00 38 1017.0
20260503234736 55 274 3.0 7.0 0.00 0.00 0.00 40 1016.8
20260503233836 56 279 5.0 10.0 0.00 0.00 0.00 38 1016.7
20260503232937 56 282 4.0 11.0 0.00 0.00 0.00 37 1016.6
20260503232036 56 283 4.0 8.0 0.00 0.00 0.00 37 1016.4
20260503231136 57 284 5.0 10.0 0.00 0.00 0.00 38 1016.4
20260503230236 57 290 7.0 14.0 0.00 0.00 0.00 38 1016.4
20260503224435 58 291 6.0 13.0 0.00 0.00 0.00 36 1016.3
20260503222636 57 289 6.0 12.0 0.00 0.00 0.00 35 1016.2
20260503221735 57 293 6.0 10.0 0.00 0.00 0.00 35 1016.2
20260503220835 57 302 7.0 14.0 0.00 0.00 0.00 37 1016.2
20260503215036 57 298 7.0 12.0 0.00 0.00 0.00 38 1016.2
20260503214136 57 295 7.0 14.0 0.00 0.00 0.00 38 1016.1
20260503213236 57 299 7.0 14.0 0.00 0.00 0.00 36 1016.0
20260503212335 57 291 8.0 18.0 0.00 0.00 0.00 36 1016.0
20260503211436 57 291 8.0 18.0 0.00 0.00 0.00 36 1016.0
20260503210535 56 294 8.0 16.0 0.00 0.00 0.00 39 1016.0
20260503203835 55 303 8.0 16.0 0.00 0.00 0.00 41 1016.0
20260503202035 54 297 11.0 20.0 0.00 0.00 0.00 39 1016.0
20260503201135 55 302 9.0 20.0 0.00 0.00 0.00 37 1016.1
20260503200235 54 289 10.0 18.0 0.00 0.00 0.00 42 1016.2
20260503195335 54 289 10.0 21.0 0.00 0.00 0.00 41 1016.2
20260503194435 54 289 11.0 20.0 0.00 0.00 0.00 43 1016.3
20260503193536 54 286 9.0 18.0 0.00 0.00 0.00 41 1016.3
20260503192636 53 289 12.0 21.0 0.00 0.00 0.00 42 1016.4
20260503191735 54 290 11.0 20.0 0.00 0.00 0.00 43 1016.4
20260503190835 53 294 12.0 22.0 0.00 0.00 0.00 42 1016.5
20260503185935 53 288 14.0 27.0 0.00 0.00 0.00 42 1016.4
20260503185035 53 291 12.0 27.0 0.00 0.00 0.00 40 1016.4
20260503184135 54 290 12.0 19.0 0.00 0.00 0.00 45 1016.4
20260503183235 53 290 14.0 26.0 0.00 0.00 0.00 42 1016.3
20260503182335 53 290 13.0 24.0 0.00 0.00 0.00 41 1016.3
20260503181435 53 304 11.0 24.0 0.00 0.00 0.00 42 1016.2
20260503180535 52 318 8.0 17.0 0.00 0.00 0.00 44 1016.3
20260503175634 52 311 8.0 14.0 0.00 0.00 0.00 43 1016.3
20260503174735 52 299 7.0 15.0 0.00 0.00 0.00 41 1016.4
20260503173835 51 293 8.0 15.0 0.00 0.00 0.00 45 1016.4
20260503172934 51 297 10.0 20.0 0.00 0.00 0.00 44 1016.5
20260503172034 51 295 10.0 18.0 0.00 0.00 0.00 45 1016.5
20260503171134 51 300 11.0 24.0 0.00 0.00 0.00 44 1016.6
20260503170234 51 301 13.0 26.0 0.00 0.00 0.00 48 1016.6
20260503150534 49 307 16.0 25.0 0.00 0.00 0.00 53 1016.8
20260503130833 46 297 11.0 19.0 0.00 0.00 0.00 62 1016.9
20260503110233 44 331 10.0 21.0 0.00 0.00 0.00 65 1016.6